User: anonymous   Login
Location: Carr Mill
(33.2054°N, 85.9439°W)
Time: 02:27:20
(UTC+00:00)
Language:

STARLINK-2732 - Orbit

View from above orbital plane
View from above orbital plane
View from above satellite
View from above satellite

Ground track
Ground track

The orbit data is extracted from the following two-line orbital elements,

1 48646C 21044J   21269.77779343  .00005372  00000-0  35986-3 0  2697
2 48646  53.0534 216.1189 0001675  51.2275 190.4685 15.06398848    15
Epoch (UTC): 26 September 2021 18:40:01
Eccentricity: 0.0001675
inclination: 53.0534°
perigee height: 546 km
apogee height: 548 km
right ascension of ascending node: 216.1189°
argument of perigee: 51.2275°
revolutions per day: 15.06398848
mean anomaly at epoch: 190.4685°
orbit number at epoch: 1

The dashed part of the orbit path shows where the satellite is in the earth's shadow,  

DLR